Weather in Samarka

Russia / Primorsky Krai     44°44′10″N   134°12′54″E
temp.,
°C
wind,
m/s
gust,
m/s
humid.,
%
clouds,
%
prec.,
mm/h
press.,
hPa
HPBL,
m
13 may, thu
thu1301:00+5se22960 0.0 101448
04:00+3se22972 0.0 101451
07:00+4se23940 0.0 1014119
10:00+12ssw48650 0.0 1012820
13:00+19wsw48400 0.0 10102044
16:00+20w58325 0.0 10092908
19:00+17wnw245538 0.0 1009128
22:00+9s11915 1.0 101212
14 may, fri
fri1401:00+8s229486 0.3 101324
04:00+7s11945 0.3 101312
07:00+8s12910 0.0 101471
10:00+16sw23560 0.0 1014533
13:00+22w3425100 0.0 10122370
16:00+22wsw232496 0.0 10112448
19:00+18nne1144100 0.0 101011
22:00+14sse2250100 0.0 101132
15 may, sat
sat1501:00+12sse2259100 0.0 101025
04:00+10se2594100 1.6 1009149
07:00+11se2492100 0.6 1007141
10:00+18sw5146886 0.6 1006996
13:00+19wsw51264100 0.0 10051481
16:00+13nw31091100 0.3 1006705
19:00+10wnw21094100 3.3 1009686
22:00+9ssw2796100 6.1 1011319
16 may, sun
sun1601:00+9ssw2397100 0.1 1010110
04:00+8ssw2498100 0.1 101093
07:00+9ssw1394100 0.0 1010143
10:00+13sw2475100 0.0 1010511
13:00+14sw3463100 0.1 1008866
16:00+13wsw2369100 0.3 1007686
19:00+12s1381100 0.1 1006201
22:00+8sse119178 0.1 100610
17 may, mon
mon1701:00+6se1192100 0.0 100610
04:00+5se119169 0.0 100610
07:00+8s11805 0.0 100652
10:00+16wnw23525 0.0 1005693
13:00+20nw36374 0.0 10052435
16:00+21nw563019 0.0 10042863
19:00+18w37522 0.0 1006364
22:00+11sse21703 0.0 100912